星链-11693 (STARLINK-11693)

导读

STARLINK-11693是美国于2025年4月29日发射的Starlink星链互联网卫星,星链项目是美国太空探索技术公司SpaceX打造的低轨卫星星座计划,旨在为全球提供高速低延迟宽带互联网服务。该卫星作为星链星座组网的一部分,加入近地轨道运行,进一步完善星座全球覆盖能力,推动全球互联网普及进程。

基本信息
目录编号:
63763
目录名称:
STARLINK-11693
国际标识:
2025-089N
轨道中心:
EARTH
卫星名称:
星链-11693
卫星全名:
星链-11693 (STARLINK-11693)
卫星状态:
在轨 (已飞行494 天)
发射日期:
2025-04-29 UTC
国别 :
美国 (US)
星等 :
--
轨道信息
数据来源 国际轨道数据
星历时间: 2026-09-05T04:19:23+0800
11小时前
查看轨道信息
半长轴: 6734.328km
偏心率: 0.0001288
轨道倾角: 43.000°
近地点辐角 288.156°
升交点赤经 292.218°
平近点角 71.916°
近地点: 355.323km
远地点: 357.059km
周期: 91.664分钟
每日圈数: 15.709467
详细信息
固有亮度:
5
最大亮度:
2.5
卫星平台:
Starlink V1.0
覆盖范围:
全球
运营商:
太空探索技术公司
运营商所在国:
美国
制造商(研发单位):
太空探索技术公司
制造商所在国:
美国
使用方式:
暂无
卫星简介
Starlink 计划是 SpaceX 推出的全球卫星互联网项目,通过发射低轨道卫星,为全球尤其是偏远地区提供高速、低延迟的互联网服务。自 2019 年起,Starlink 已部署数千颗卫星,旨在缩小全球数字鸿沟,推动互联网普及。该项目还为军事、航空等行业提供通信支持,带来广泛经济效益。
2D轨道图
3D轨道图
轨道高度分析图
轨道倾角分析图
轨道综合分析图
查看轨道综合分析图
交会数据列表
事件ID 空间交会对象 最接近时刻(TCA) 交会距离 交会风险概率(CRP) 交会风险指数(CRI) 操作
CDM_260906-105106-283906-376321
2026-09-06T
10:51:56+0000
1.622 km
极远距离
1.211063E-6 低风险 0.37